N3RPH-10 Weather Reports


time (UTC)temp
F
wind
direction
speed
knots
gust
knots
rain 1hr
in
rain 24hr
in
rain mn
in
humidity
%
barometer
mb
20260901020041 76 192 1.7 4.3 0.00 0.00 0.00 76 1016.5
20260901015541 76 201 1.7 4.3 0.00 0.00 0.00 77 1016.4
20260901015041 76 201 1.7 4.3 0.00 0.00 0.00 77 1016.4
20260901014541 77 184 2.6 5.2 0.00 0.00 0.00 76 1016.3
20260901014041 77 172 1.7 5.2 0.00 0.00 0.00 73 1016.3
20260901013541 78 173 1.7 5.2 0.00 0.00 0.00 71 1016.4
20260901013040 78 157 1.7 5.2 0.00 0.00 0.00 67 1016.3
20260901012540 78 197 0.9 4.3 0.00 0.00 0.00 65 1016.2
20260901012040 78 216 0.9 2.6 0.00 0.00 0.00 65 1016.2
20260901011540 78 208 0.0 2.6 0.00 0.00 0.00 65 1016.1
20260901011040 79 193 0.0 2.6 0.00 0.00 0.00 65 1016.1
20260901010540 79 270 0.0 1.7 0.00 0.00 0.00 64 1016.1
20260901010040 79 237 0.9 2.6 0.00 0.00 0.00 64 1016.0
20260901005540 79 230 0.9 1.7 0.00 0.00 0.00 64 1016.1
20260901005040 79 115 0.0 2.6 0.00 0.00 0.00 63 1016.2
20260901004540 79 216 1.7 4.3 0.00 0.00 0.00 63 1016.2
20260901004040 79 222 2.6 4.3 0.00 0.00 0.00 63 1016.1
20260901003540 79 218 3.5 5.2 0.00 0.00 0.00 63 1016.1
20260901003040 79 221 3.5 4.3 0.00 0.00 0.00 64 1016.0
20260901002540 79 220 2.6 4.3 0.00 0.00 0.00 64 1015.9
20260901002041 79 224 2.6 5.2 0.00 0.00 0.00 64 1015.8
20260901001541 79 220 3.5 5.2 0.00 0.00 0.00 64 1015.8
20260901001041 79 221 3.5 6.1 0.00 0.00 0.00 64 1015.6
20260901000541 79 222 3.5 5.2 0.00 0.00 0.00 64 1015.8
20260901000041 79 220 4.3 6.1 0.00 0.00 0.00 63 1015.8
20260831235541 79 220 3.5 6.1 0.00 0.00 0.00 63 1015.8
20260831235041 79 216 3.5 6.1 0.00 0.00 0.00 63 1015.9
20260831234541 79 212 3.5 6.1 0.00 0.00 0.00 63 1015.9
20260831234041 79 221 3.5 5.2 0.00 0.00 0.00 63 1015.9
20260831233540 79 234 2.6 5.2 0.00 0.00 0.00 63 1016.0
20260831233040 80 222 4.3 7.0 0.00 0.00 0.00 62 1016.0
20260831232540 80 220 4.3 7.0 0.00 0.00 0.00 62 1016.0
20260831232040 80 236 3.5 5.2 0.00 0.00 0.00 62 1016.1
20260831231540 80 221 3.5 6.1 0.00 0.00 0.00 62 1016.1
20260831231040 80 236 3.5 7.0 0.00 0.00 0.00 62 1016.2
20260831230540 80 236 4.3 7.0 0.00 0.00 0.00 61 1016.3
20260831230040 80 227 4.3 7.0 0.00 0.00 0.00 61 1016.2
20260831225540 80 225 4.3 7.0 0.00 0.00 0.00 61 1016.1
20260831225041 80 225 3.5 7.0 0.00 0.00 0.00 61 1016.1
20260831224541 80 237 3.5 7.8 0.00 0.00 0.00 61 1016.3
20260831224042 80 217 4.3 7.8 0.00 0.00 0.00 61 1016.2
20260831223541 81 220 4.3 8.7 0.00 0.00 0.00 60 1016.2
20260831223041 81 220 4.3 7.8 0.00 0.00 0.00 59 1016.2
20260831222541 81 233 4.3 7.8 0.00 0.00 0.00 59 1016.3
20260831222041 81 231 3.5 7.0 0.00 0.00 0.00 59 1016.3
20260831221541 81 238 4.3 7.0 0.00 0.00 0.00 59 1016.4
20260831221041 81 243 3.5 7.0 0.00 0.00 0.00 59 1016.4
20260831220541 80 220 4.3 7.0 0.00 0.00 0.00 60 1016.5
20260831220042 80 239 3.5 7.8 0.00 0.00 0.00 60 1016.6
20260831215542 80 251 4.3 7.8 0.00 0.00 0.00 59 1016.6
20260831215041 80 246 4.3 7.8 0.00 0.00 0.00 58 1016.7
20260831214541 80 253 3.5 7.8 0.00 0.00 0.00 59 1016.6
20260831214042 80 263 1.7 3.5 0.00 0.00 0.00 59 1016.7
20260831213541 80 271 1.7 2.6 0.00 0.00 0.00 60 1016.5
20260831213041 80 260 1.7 3.5 0.00 0.00 0.00 60 1016.6
20260831212541 80 257 1.7 4.3 0.00 0.00 0.00 59 1016.5
20260831212041 80 250 2.6 6.1 0.00 0.00 0.00 59 1016.6
20260831211541 81 254 4.3 7.0 0.00 0.00 0.00 59 1016.7
20260831211041 81 274 1.7 4.3 0.00 0.00 0.00 59 1016.7
20260831210541 81 251 2.6 4.3 0.00 0.00 0.00 58 1016.6
20260831210040 81 249 3.5 4.3 0.00 0.00 0.00 59 1016.7
20260831205540 81 251 3.5 7.0 0.00 0.00 0.00 58 1016.6
20260831205040 81 227 4.3 7.0 0.00 0.00 0.00 58 1016.8
20260831204541 81 233 3.5 7.0 0.00 0.00 0.00 58 1016.9
20260831204040 81 249 4.3 7.0 0.00 0.00 0.00 58 1016.8
20260831203541 81 242 4.3 7.0 0.00 0.00 0.00 58 1016.9
20260831203041 81 242 4.3 7.0 0.00 0.00 0.00 58 1016.8
20260831202541 81 236 3.5 6.1 0.00 0.00 0.00 58 1016.8
20260831202041 80 240 3.5 7.0 0.00 0.00 0.00 59 1016.8
20260831201541 81 243 3.5 8.7 0.00 0.00 0.00 59 1016.8
20260831201041 81 248 4.3 8.7 0.00 0.00 0.00 56 1016.9
20260831200541 81 258 2.6 7.0 0.00 0.00 0.00 56 1016.9
20260831200042 81 244 3.5 7.0 0.00 0.00 0.00 57 1017.0
20260831195541 82 246 2.6 6.1 0.00 0.00 0.00 56 1016.9
20260831195041 82 244 3.5 5.2 0.00 0.00 0.00 55 1017.2
20260831194541 82 230 4.3 6.1 0.00 0.00 0.00 54 1017.2
20260831194041 81 239 4.3 7.0 0.00 0.00 0.00 55 1017.3
20260831193541 81 228 3.5 5.2 0.00 0.00 0.00 55 1017.2
20260831193041 81 225 3.5 7.0 0.00 0.00 0.00 56 1017.2
20260831192541 81 242 5.2 7.8 0.00 0.00 0.00 55 1017.5
20260831192041 81 229 4.3 7.0 0.00 0.00 0.00 55 1017.5
20260831191541 81 243 4.3 7.8 0.00 0.00 0.00 55 1017.3
20260831191041 82 244 4.3 7.8 0.00 0.00 0.00 54 1017.5
20260831190541 82 228 3.5 8.7 0.00 0.00 0.00 54 1017.7
20260831190042 82 232 4.3 9.6 0.00 0.00 0.00 54 1017.7
20260831185541 82 236 4.3 9.6 0.00 0.00 0.00 54 1017.7
20260831185041 81 241 3.5 6.1 0.00 0.00 0.00 56 1017.7
20260831184541 81 233 4.3 7.0 0.00 0.00 0.00 55 1017.7
20260831184041 81 244 4.3 6.1 0.00 0.00 0.00 54 1017.8
20260831183541 81 236 3.5 7.0 0.00 0.00 0.00 55 1017.7
20260831183041 81 221 2.6 7.0 0.00 0.00 0.00 55 1017.6
20260831182541 81 223 4.3 7.8 0.00 0.00 0.00 54 1017.6
20260831182041 81 238 3.5 7.0 0.00 0.00 0.00 55 1017.7
20260831181541 81 219 4.3 7.8 0.00 0.00 0.00 55 1017.7
20260831181041 81 235 4.3 7.8 0.00 0.00 0.00 55 1017.9
20260831180542 81 243 4.3 7.8 0.00 0.00 0.00 55 1017.9
20260831180041 80 243 4.3 7.8 0.00 0.00 0.00 56 1017.7
20260831175542 80 250 4.3 10.4 0.00 0.00 0.00 57 1017.8
20260831175040 81 249 5.2 11.3 0.00 0.00 0.00 55 1017.8
20260831174541 81 243 4.3 8.7 0.00 0.00 0.00 56 1017.9
20260831174041 81 239 5.2 9.6 0.00 0.00 0.00 55 1017.9
20260831173541 79 257 3.5 7.0 0.00 0.00 0.00 57 1018.0
20260831173041 80 144 1.7 4.3 0.00 0.00 0.00 54 1017.9
20260831172541 80 205 1.7 4.3 0.00 0.00 0.00 56 1017.8
20260831172041 79 232 2.6 4.3 0.00 0.00 0.00 57 1017.8
20260831171541 80 172 1.7 4.3 0.00 0.00 0.00 56 1017.8
20260831171041 80 224 1.7 3.5 0.00 0.00 0.00 56 1017.8
20260831170541 81 213 2.6 6.1 0.00 0.00 0.00 55 1018.0
20260831170041 81 220 3.5 7.0 0.00 0.00 0.00 54 1017.9
20260831165541 81 222 3.5 7.0 0.00 0.00 0.00 54 1017.9
20260831165041 82 212 3.5 6.1 0.00 0.00 0.00 54 1018.0
20260831164541 80 248 3.5 5.2 0.00 0.00 0.00 55 1018.1
20260831164041 80 228 1.7 4.3 0.00 0.00 0.00 55 1018.0
20260831163541 80 229 2.6 5.2 0.00 0.00 0.00 56 1018.1
20260831163041 79 209 3.5 5.2 0.00 0.00 0.00 57 1018.2
20260831162541 78 215 1.7 4.3 0.00 0.00 0.00 59 1018.1
20260831162042 78 215 2.6 4.3 0.00 0.00 0.00 59 1018.1
20260831161542 78 205 1.7 5.2 0.00 0.00 0.00 59 1018.1
20260831161042 77 236 2.6 4.3 0.00 0.00 0.00 61 1018.1
20260831160541 77 132 1.7 5.2 0.00 0.00 0.00 61 1018.1
20260831160041 77 206 1.7 5.2 0.00 0.00 0.00 62 1018.1
20260831155541 77 144 1.7 4.3 0.00 0.00 0.00 61 1018.1
20260831155041 76 242 0.9 3.5 0.00 0.00 0.00 63 1018.1
20260831154541 77 185 1.7 4.3 0.00 0.00 0.00 61 1018.1
20260831154041 76 185 1.7 4.3 0.00 0.00 0.00 62 1018.1
20260831153541 77 126 1.7 5.2 0.00 0.00 0.00 62 1018.1
20260831153041 77 172 2.6 6.1 0.00 0.00 0.00 60 1018.1
20260831152541 78 183 2.6 6.1 0.00 0.00 0.00 60 1018.1
20260831152041 77 210 2.6 5.2 0.00 0.00 0.00 61 1018.1
20260831151541 74 166 1.7 4.3 0.00 0.00 0.00 66 1018.0
20260831151041 74 123 2.6 5.2 0.00 0.00 0.00 66 1018.3
20260831150541 75 100 2.6 4.3 0.00 0.00 0.00 66 1018.4
20260831150041 74 213 0.9 4.3 0.00 0.00 0.00 67 1018.5
20260831145541 74 85 1.7 4.3 0.00 0.00 0.00 67 1018.7
20260831145041 74 147 1.7 4.3 0.00 0.00 0.00 68 1018.6
20260831144541 74 118 2.6 5.2 0.00 0.00 0.00 67 1018.5
20260831144041 75 113 1.7 3.5 0.00 0.00 0.00 66 1018.5
20260831143541 75 183 1.7 3.5 0.00 0.00 0.00 67 1018.3
20260831143041 74 142 1.7 3.5 0.00 0.00 0.00 68 1018.5
20260831142541 74 102 1.7 4.3 0.00 0.00 0.00 67 1018.4
20260831142041 74 93 2.6 5.2 0.00 0.00 0.00 68 1018.4
20260831141541 74 92 3.5 5.2 0.00 0.00 0.00 68 1018.3
20260831141040 74 94 2.6 7.0 0.00 0.00 0.00 68 1018.5
20260831140540 74 92 2.6 4.3 0.00 0.00 0.00 68 1018.5
20260831140041 74 92 2.6 7.0 0.00 0.00 0.00 67 1018.5
20260831135541 74 120 2.6 7.0 0.00 0.00 0.00 67 1018.4
20260831135041 74 96 4.3 7.0 0.00 0.00 0.00 66 1018.3
20260831134541 74 106 3.5 7.8 0.00 0.00 0.00 66 1018.3
20260831134041 74 106 4.3 8.7 0.00 0.00 0.00 67 1018.3
20260831133541 74 91 4.3 7.0 0.00 0.00 0.00 66 1018.4
20260831133041 75 74 2.6 5.2 0.00 0.00 0.00 66 1018.3
20260831132541 75 150 2.6 5.2 0.00 0.00 0.00 65 1018.4
20260831132041 76 140 2.6 5.2 0.00 0.00 0.00 64 1018.4
20260831131541 76 189 1.7 4.3 0.00 0.00 0.00 65 1018.3
20260831131041 75 139 1.7 5.2 0.00 0.00 0.00 66 1018.3
20260831130541 75 110 3.5 5.2 0.00 0.00 0.00 65 1018.3
20260831130041 74 79 1.7 4.3 0.00 0.00 0.00 66 1018.4
20260831125541 74 107 2.6 5.2 0.00 0.00 0.00 67 1018.4
20260831125041 74 101 3.5 7.0 0.00 0.00 0.00 67 1018.5
20260831124541 74 71 3.5 7.0 0.00 0.00 0.00 66 1018.4
20260831124041 74 33 1.7 7.0 0.00 0.00 0.00 66 1018.4
20260831123541 75 69 4.3 7.0 0.00 0.00 0.00 66 1018.4
20260831123041 74 78 0.9 3.5 0.00 0.00 0.00 66 1018.3
20260831122541 74 75 2.6 5.2 0.00 0.00 0.00 66 1018.3
20260831122041 74 101 3.5 5.2 0.00 0.00 0.00 66 1018.2
20260831121540 74 89 2.6 5.2 0.00 0.00 0.00 65 1018.1
20260831121041 74 82 3.5 4.3 0.00 0.00 0.00 65 1018.1
20260831120540 74 92 1.7 4.3 0.00 0.00 0.00 65 1018.1
20260831120040 74 87 2.6 5.2 0.00 0.00 0.00 65 1018.2
20260831115540 74 98 2.6 5.2 0.00 0.00 0.00 65 1018.2
20260831115040 74 71 2.6 5.2 0.00 0.00 0.00 65 1018.0
20260831114540 74 82 2.6 4.3 0.00 0.00 0.00 65 1018.0
20260831114040 74 87 2.6 6.1 0.00 0.00 0.00 65 1018.0
20260831113541 74 65 3.5 7.0 0.00 0.00 0.00 65 1017.9
20260831113040 74 73 2.6 5.2 0.00 0.00 0.00 68 1017.7
20260831112540 73 80 2.6 5.2 0.00 0.00 0.00 70 1017.7
20260831112041 73 82 3.5 7.0 0.00 0.00 0.00 70 1017.7
20260831111542 74 86 3.5 6.1 0.00 0.00 0.00 70 1017.7
20260831111041 74 58 3.5 7.0 0.00 0.00 0.00 69 1017.7
20260831110541 74 104 3.5 5.2 0.00 0.00 0.00 70 1017.8
20260831110041 74 94 3.5 6.1 0.00 0.00 0.00 70 1017.8
20260831105541 74 92 2.6 5.2 0.00 0.00 0.00 70 1017.7
20260831105041 74 52 0.9 6.1 0.00 0.00 0.00 70 1017.8
20260831104541 74 95 5.2 7.8 0.00 0.00 0.00 70 1017.7
20260831104041 74 84 2.6 5.2 0.00 0.00 0.00 70 1017.7
20260831103541 74 53 2.6 4.3 0.00 0.00 0.00 70 1017.6
20260831103041 74 113 1.7 3.5 0.00 0.00 0.00 71 1017.5
20260831102540 74 111 0.9 3.5 0.00 0.00 0.00 72 1017.5
20260831102040 74 79 1.7 5.2 0.00 0.00 0.00 72 1017.4
20260831101540 74 100 0.9 3.5 0.00 0.00 0.00 73 1017.3
20260831101040 74 283 0.0 3.5 0.00 0.00 0.00 73 1017.4
20260831100540 74 96 2.6 4.3 0.00 0.00 0.00 73 1017.2
20260831100041 74 94 0.9 4.3 0.00 0.00 0.00 73 1017.1
20260831095541 74 72 3.5 7.8 0.00 0.00 0.00 74 1017.0
20260831095041 74 73 2.6 5.2 0.00 0.00 0.00 74 1017.0
20260831094541 74 102 2.6 5.2 0.00 0.00 0.00 75 1017.0
20260831094041 74 82 2.6 6.1 0.00 0.00 0.00 76 1016.9
20260831093541 74 67 2.6 5.2 0.00 0.00 0.00 76 1016.8
20260831093042 74 83 3.5 9.6 0.00 0.00 0.00 76 1016.8
20260831092542 74 90 4.3 7.8 0.00 0.00 0.00 77 1016.9
20260831092042 74 95 4.3 7.8 0.00 0.00 0.00 78 1016.9
20260831091542 74 96 4.3 11.3 0.00 0.00 0.00 78 1016.9
20260831091042 74 90 4.3 11.3 0.00 0.00 0.00 79 1016.8
20260831090542 74 70 3.5 8.7 0.00 0.00 0.00 80 1016.7
20260831090041 74 88 2.6 7.8 0.00 0.00 0.00 79 1016.6
20260831085541 74 69 5.2 9.6 0.00 0.00 0.00 80 1016.5
20260831085041 74 87 4.3 7.8 0.00 0.00 0.00 82 1016.5
20260831084540 74 77 5.2 9.6 0.00 0.00 0.00 82 1016.5
20260831084040 74 87 4.3 6.1 0.00 0.00 0.00 83 1016.5
20260831083542 75 95 3.5 7.8 0.00 0.00 0.00 83 1016.6
20260831083041 75 84 2.6 4.3 0.00 0.00 0.00 82 1016.7
20260831082541 75 93 3.5 7.0 0.00 0.00 0.00 82 1016.8
20260831082041 75 92 3.5 6.1 0.00 0.00 0.00 81 1016.7
20260831081541 75 109 2.6 5.2 0.00 0.00 0.00 81 1016.7
20260831081041 75 107 1.7 4.3 0.00 0.00 0.00 80 1016.7
20260831080541 75 106 1.7 3.5 0.00 0.00 0.00 79 1016.9
20260831080040 75 55 0.9 2.6 0.00 0.00 0.00 79 1016.8
20260831075540 74 68 0.9 1.7 0.00 0.00 0.00 79 1016.8
20260831075040 74 238 0.9 1.7 0.00 0.00 0.00 79 1016.8
20260831074541 74 37 0.0 1.7 0.00 0.00 0.00 79 1016.8
20260831074041 74 55 1.7 2.6 0.00 0.00 0.00 79 1016.8
20260831073541 74 59 0.0 1.7 0.00 0.00 0.00 79 1016.9
20260831073041 74 290 0.9 1.7 0.00 0.00 0.00 79 1016.8
20260831072541 74 0.0 1.7 0.00 0.00 0.00 79 1016.7
20260831072041 74 197 0.0 1.7 0.00 0.00 0.00 80 1016.7
20260831071541 74 203 0.0 1.7 0.00 0.00 0.00 80 1016.7
20260831071040 74 0.0 1.7 0.00 0.00 0.00 80 1016.8
20260831070540 74 293 0.0 1.7 0.00 0.00 0.00 80 1016.8
20260831070042 74 274 0.0 1.7 0.00 0.00 0.00 80 1016.8
20260831065541 74 0.0 0.9 0.00 0.00 0.00 80 1016.9
20260831065041 74 0.0 0.9 0.00 0.00 0.00 80 1016.8
20260831064541 74 224 0.0 1.7 0.00 0.00 0.00 80 1016.8
20260831064041 74 52 0.9 1.7 0.00 0.00 0.00 80 1016.9
20260831063541 74 237 0.9 2.6 0.00 0.00 0.00 79 1016.9
20260831063041 74 247 0.9 3.5 0.00 0.00 0.00 79 1016.9
20260831062541 74 263 1.7 5.2 0.00 0.00 0.00 79 1016.9
20260831062041 74 250 2.6 5.2 0.00 0.00 0.00 78 1016.9
20260831061541 75 250 1.7 4.3 0.00 0.00 0.00 77 1017.0
20260831061041 75 232 1.7 5.2 0.00 0.00 0.00 76 1017.1
20260831060541 75 237 0.9 3.5 0.00 0.00 0.00 76 1017.0
20260831060041 76 216 0.9 2.6 0.00 0.00 0.00 76 1017.0
20260831055541 76 230 2.6 3.5 0.00 0.00 0.00 77 1017.0
20260831055041 76 231 0.9 3.5 0.00 0.00 0.00 78 1017.0
20260831054541 76 276 0.9 2.6 0.00 0.00 0.00 77 1016.9
20260831054041 76 112 0.0 1.7 0.00 0.00 0.00 76 1017.1
20260831053541 76 38 0.9 1.7 0.00 0.00 0.00 75 1017.2
20260831053041 76 49 0.9 2.6 0.00 0.00 0.00 75 1017.1
20260831052542 76 241 0.9 2.6 0.00 0.00 0.00 75 1017.0
20260831052042 76 226 0.9 2.6 0.00 0.00 0.00 74 1017.1
20260831051542 76 219 0.0 1.7 0.00 0.00 0.00 74 1016.9
20260831051041 76 246 0.0 1.7 0.00 0.00 0.00 73 1016.8
20260831050542 76 188 0.9 1.7 0.00 0.00 0.00 73 1016.9
20260831050041 76 350 0.9 2.6 0.00 0.00 0.00 72 1017.0
20260831045541 76 3 2.6 5.2 0.00 0.00 0.00 72 1017.1
20260831045041 76 6 1.7 5.2 0.00 0.00 0.00 72 1017.2
20260831044541 76 337 0.9 3.5 0.00 0.00 0.00 72 1017.2
20260831044041 76 12 1.7 3.5 0.00 0.00 0.00 72 1017.3
20260831043541 76 330 0.9 2.6 0.00 0.00 0.00 72 1017.3
20260831043041 76 305 2.6 5.2 0.00 0.00 0.00 72 1017.3
20260831042541 76 300 2.6 5.2 0.00 0.00 0.00 72 1017.3
20260831042041 76 283 2.6 6.1 0.00 0.00 0.00 72 1017.3
20260831041541 76 289 1.7 6.1 0.00 0.00 0.00 73 1017.2
20260831041041 76 287 1.7 3.5 0.00 0.00 0.00 74 1017.2
20260831040541 76 311 1.7 2.6 0.00 0.00 0.00 74 1017.2
20260831040041 76 292 3.5 5.2 0.00 0.00 0.00 75 1017.2
20260831035541 77 285 3.5 5.2 0.00 0.00 0.00 76 1017.2
20260831035041 77 317 1.7 5.2 0.00 0.00 0.00 76 1017.2
20260831034541 77 307 2.6 7.0 0.00 0.00 0.00 77 1017.3
20260831034041 78 293 3.5 6.1 0.00 0.00 0.00 75 1017.3
20260831033541 78 292 3.5 10.4 0.00 0.00 0.00 77 1017.2
20260831033041 78 287 3.5 9.6 0.00 0.00 0.00 79 1017.1
20260831032542 78 269 4.3 9.6 0.00 0.00 0.00 79 1017.1
20260831032041 78 262 5.2 9.6 0.00 0.00 0.00 79 1017.0
20260831031540 78 275 4.3 7.0 0.00 0.00 0.00 79 1017.1
20260831031041 78 269 2.6 5.2 0.00 0.00 0.00 80 1016.9
20260831030541 78 266 4.3 7.0 0.00 0.00 0.00 79 1016.9
20260831030041 78 271 3.5 5.2 0.00 0.00 0.00 80 1016.9
20260831025542 78 276 2.6 5.2 0.00 0.00 0.00 80 1016.9
20260831025041 79 264 3.5 5.2 0.00 0.00 0.00 79 1016.9
20260831024541 79 270 2.6 3.5 0.00 0.00 0.00 79 1017.0
20260831024041 79 261 2.6 4.3 0.00 0.00 0.00 78 1016.9
20260831023541 79 256 2.6 4.3 0.00 0.00 0.00 78 1017.0
20260831023041 79 263 2.6 5.2 0.00 0.00 0.00 77 1016.9
20260831022542 80 250 1.7 4.3 0.00 0.00 0.00 76 1016.9
20260831022042 80 248 2.6 5.2 0.00 0.00 0.00 74 1016.9
20260831021542 80 258 3.5 7.8 0.00 0.00 0.00 73 1016.9
20260831021042 80 274 1.7 4.3 0.00 0.00 0.00 73 1016.8
20260831020542 80 259 2.6 5.2 0.00 0.00 0.00 73 1016.8